QPF
0.00 0.00 0.00 0.00 0.00 0.00 0.00 0.00 0.00 0.00 0.00 0.00 0.00 0.00 0.00 0.00 0.00 0.00 0.00 0.00 0.00 0.00 0.00 0.00 0.00 0.00 0.00 0.00 0.00 0.00 0.00 0.01 0.01 0.00 0.00 0.00 0.01 0.02 0.03 0.05 0.08 0.13 0.18
0.00 0.00 0.00 0.00 0.00 0.00 0.00 0.00 0.00 0.00 0.00 0.00 0.00 0.00 0.00 0.00 0.00 0.00 0.00 0.00 0.00 0.00 0.00 0.00 0.00 0.00 0.00 0.00 0.00 0.00 0.00 0.00 0.01 0.01 0.00 0.00 0.00 0.00 0.01 0.03 0.04 0.07 0.14
0.00 0.00 0.00 0.00 0.00 0.00 0.00 0.00 0.00 0.00 0.00 0.00 0.00 0.00 0.00 0.00 0.00 0.00 0.00 0.00 0.00 0.00 0.00 0.00 0.00 0.00 0.00 0.00 0.00 0.00 0.00 0.00 0.00 0.00 0.01 0.00 0.00 0.00 0.00 0.01 0.03 0.04 0.07
0.00 0.00 0.00 0.00 0.00 0.00 0.00 0.00 0.00 0.00 0.00 0.00 0.00 0.00 0.00 0.00 0.00 0.00 0.00 0.00 0.00 0.00 0.00 0.00 0.00 0.00 0.00 0.00 0.00 0.00 0.00 0.00 0.00 0.00 0.00 0.00 0.00 0.00 0.00 0.00 0.01 0.01 0.03
0.00 0.00 0.00 0.00 0.00 0.00 0.00 0.00 0.00 0.00 0.00 0.00 0.00 0.00 0.00 0.00 0.00 0.00 0.00 0.00 0.00 0.00 0.00 0.00 0.01 0.01 0.01 0.01 0.01 0.00 0.00 0.00 0.00 0.00 0.00 0.00 0.00 0.00 0.00 0.00 0.00 0.00 0.01
0.00 0.00 0.00 0.00 0.00 0.00 0.00 0.00 0.00 0.00 0.00 0.00 0.00 0.00 0.00 0.00 0.00 0.00 0.00 0.00 0.00 0.00 0.01 0.01 0.01 0.01 0.01 0.01 0.01 0.01 0.00 0.00 0.00 0.00 0.00 0.00 0.00 0.00 0.00 0.00 0.00 0.00 0.00
0.00 0.00 0.00 0.00 0.00 0.00 0.00 0.00 0.00 0.00 0.00 0.00 0.00 0.00 0.00 0.00 0.00 0.00 0.00 0.00 0.00 0.00 0.01 0.01 0.02 0.02 0.02 0.02 0.02 0.02 0.01 0.01 0.01 0.00 0.00 0.00 0.00 0.00 0.00 0.00 0.00 0.00 0.00
0.00 0.00 0.00 0.00 0.00 0.00 0.00 0.00 0.00 0.00 0.00 0.00 0.00 0.00 0.00 0.00 0.00 0.00 0.00 0.00 0.00 0.00 0.01 0.02 0.03 0.04 0.04 0.04 0.04 0.03 0.03 0.02 0.02 0.01 0.00 0.00 0.00 0.00 0.00 0.00 0.00 0.00 0.00
0.00 0.00 0.00 0.00 0.00 0.00 0.00 0.00 0.00 0.00 0.00 0.00 0.00 0.00 0.00 0.00 0.00 0.00 0.00 0.01 0.01 0.02 0.03 0.05 0.06 0.07 0.07 0.07 0.05 0.04 0.03 0.02 0.02 0.01 0.01 0.00 0.00 0.00 0.00 0.00 0.00 0.00 0.00
0.00 0.00 0.00 0.00 0.00 0.00 0.00 0.00 0.00 0.00 0.00 0.00 0.00 0.00 0.00 0.00 0.00 0.00 0.01 0.02 0.02 0.03 0.04 0.06 0.07 0.09 0.09 0.09 0.08 0.06 0.04 0.02 0.01 0.01 0.00 0.00 0.00 0.00 0.00 0.00 0.00 0.00 0.00
0.00 0.00 0.00 0.00 0.00 0.00 0.00 0.00 0.00 0.00 0.01 0.01 0.00 0.00 0.00 0.00 0.00 0.00 0.01 0.02 0.03 0.04 0.05 0.06 0.07 0.08 0.08 0.09 0.09 0.09 0.07 0.05 0.02 0.01 0.01 0.00 0.00 0.00 0.00 0.00 0.00 0.00 0.00
0.00 0.00 0.00 0.00 0.00 0.00 0.00 0.00 0.00 0.01 0.01 0.01 0.01 0.00 0.00 0.00 0.00 0.00 0.01 0.03 0.05 0.06 0.08 0.08 0.09 0.08 0.08 0.08 0.08 0.08 0.07 0.06 0.05 0.03 0.02 0.01 0.01 0.00 0.00 0.00 0.00 0.00 0.00
0.00 0.00 0.00 0.00 0.00 0.00 0.00 0.00 0.01 0.01 0.01 0.01 0.01 0.00 0.00 0.00 0.00 0.01 0.01 0.03 0.05 0.08 0.10 0.12 0.12 0.12 0.13 0.12 0.11 0.10 0.09 0.08 0.07 0.06 0.05 0.04 0.02 0.01 0.00 0.00 0.00 0.00 0.00
0.00 0.00 0.00 0.00 0.00 0.00 0.00 0.01 0.01 0.01 0.01 0.01 0.01 0.00 0.00 0.01 0.01 0.01 0.02 0.03 0.04 0.07 0.09 0.12 0.15 0.18 0.20 0.20 0.19 0.16 0.14 0.12 0.10 0.08 0.07 0.06 0.04 0.02 0.01 0.00 0.00 0.00 0.00
0.00 0.00 0.00 0.00 0.00 0.00 0.00 0.01 0.01 0.01 0.01 0.01 0.01 0.00 0.00 0.00 0.01 0.02 0.03 0.03 0.05 0.07 0.08 0.10 0.15 0.20 0.24 0.23 0.18 0.16 0.15 0.15 0.13 0.11 0.09 0.06 0.05 0.03 0.02 0.01 0.00 0.00 0.00
0.01 0.00 0.00 0.00 0.00 0.00 0.01 0.01 0.01 0.01 0.01 0.00 0.00 0.00 0.00 0.00 0.01 0.02 0.03 0.04 0.05 0.05 0.06 0.07 0.12 0.19 0.24 0.24 0.16 0.12 0.13 0.14 0.13 0.11 0.09 0.06 0.05 0.04 0.03 0.02 0.01 0.00 0.00
0.01 0.01 0.00 0.00 0.01 0.01 0.01 0.01 0.01 0.00 0.00 0.00 0.00 0.00 0.00 0.00 0.00 0.01 0.02 0.03 0.04 0.04 0.04 0.04 0.06 0.10 0.13 0.13 0.11 0.09 0.07 0.07 0.06 0.05 0.04 0.03 0.03 0.02 0.02 0.01 0.01 0.00 0.00
0.02 0.01 0.01 0.00 0.00 0.00 0.00 0.00 0.00 0.00 0.00 0.00 0.00 0.00 0.00 0.00 0.00 0.00 0.01 0.02 0.02 0.03 0.03 0.02 0.02 0.03 0.04 0.05 0.05 0.04 0.03 0.02 0.01 0.01 0.01 0.00 0.00 0.01 0.00 0.00 0.00 0.00 0.00
0.01 0.01 0.00 0.00 0.00 0.00 0.00 0.00 0.00 0.00 0.00 0.00 0.00 0.00 0.00 0.00 0.00 0.00 0.00 0.01 0.01 0.01 0.01 0.01 0.01 0.01 0.01 0.01 0.03 0.02 0.01 0.01 0.01 0.00 0.00 0.00 0.00 0.00 0.00 0.00 0.00 0.00 0.00
0.00 0.00 0.00 0.00 0.00 0.00 0.00 0.00 0.00 0.00 0.00 0.00 0.00 0.00 0.00 0.00 0.00 0.00 0.00 0.00 0.00 0.00 0.00 0.00 0.00 0.00 0.00 0.01 0.04 0.03 0.00 0.01 0.00 0.00 0.00 0.00 0.00 0.00 0.00 0.00 0.00 0.00 0.00
0.00 0.00 0.00 0.00 0.00 0.00 0.00 0.00 0.00 0.00 0.00 0.00 0.00 0.00 0.00 0.00 0.00 0.00 0.00 0.00 0.00 0.00 0.00 0.00 0.00 0.00 0.00 0.00 0.03 0.05 0.02 0.01 0.00 0.00 0.00 0.00 0.00 0.00 0.00 0.00 0.00 0.00 0.00
0.00 0.00 0.00 0.00 0.00 0.00 0.00 0.00 0.00 0.00 0.00 0.00 0.00 0.00 0.00 0.00 0.00 0.00 0.00 0.00 0.00 0.00 0.00 0.00 0.00 0.00 0.00 0.00 0.03 0.05 0.06 0.04 0.01 0.00 0.00 0.00 0.00 0.00 0.00 0.00 0.00 0.00 0.00
0.00 0.00 0.00 0.00 0.00 0.00 0.00 0.00 0.00 0.00 0.00 0.00 0.00 0.00 0.00 0.00 0.00 0.00 0.00 0.00 0.00 0.00 0.00 0.00 0.00 0.00 0.00 0.00 0.01 0.01 0.02 0.03 0.02 0.01 0.01 0.00 0.00 0.00 0.00 0.00 0.00 0.00 0.00
0.00 0.00 0.00 0.00 0.00 0.00 0.00 0.00 0.00 0.00 0.00 0.00 0.00 0.00 0.00 0.00 0.00 0.00 0.00 0.00 0.00 0.01 0.03 0.02 0.01 0.00 0.00 0.00 0.00 0.01 0.00 0.01 0.02 0.02 0.02 0.02 0.00 0.00 0.00 0.00 0.00 0.00 0.00
0.00 0.00 0.00 0.00 0.00 0.00 0.00 0.00 0.00 0.00 0.00 0.00 0.00 0.00 0.00 0.00 0.00 0.00 0.00 0.00 0.00 0.02 0.04 0.03 0.03 0.02 0.01 0.02 0.03 0.03 0.03 0.02 0.02 0.02 0.01 0.01 0.00 0.00 0.00 0.00 0.00 0.00 0.00
0.00 0.00 0.00 0.00 0.00 0.00 0.00 0.00 0.00 0.00 0.00 0.00 0.00 0.00 0.00 0.00 0.00 0.00 0.00 0.00 0.00 0.01 0.01 0.01 0.02 0.02 0.04 0.04 0.03 0.03 0.04 0.04 0.04 0.03 0.01 0.00 0.00 0.00 0.00 0.00 0.00 0.00 0.00
MSLP
1023.75 1023.42 1023.11 1022.79 1022.44 1022.04 1021.58 1021.05 1020.49 1019.94 1019.42 1018.95 1018.53 1018.15 1017.75 1017.28 1016.71 1016.01 1015.18 1014.26 1013.29 1012.36 1011.54 1010.88 1010.42 1010.17 1010.08 1010.12 1010.23 1010.35 1010.43 1010.46 1010.42 1010.33 1010.21 1010.08 1009.96 1009.86 1009.79 1009.74 1009.71 1009.71 1009.74
1024.45 1024.12 1023.78 1023.41 1022.99 1022.51 1021.97 1021.39 1020.80 1020.25 1019.75 1019.32 1018.94 1018.57 1018.18 1017.69 1017.07 1016.28 1015.36 1014.32 1013.25 1012.20 1011.28 1010.53 1010.00 1009.68 1009.55 1009.56 1009.66 1009.78 1009.90 1009.97 1010.00 1009.99 1009.95 1009.90 1009.84 1009.79 1009.74 1009.69 1009.66 1009.63 1009.63
1025.20 1024.88 1024.51 1024.08 1023.59 1023.02 1022.40 1021.76 1021.13 1020.55 1020.05 1019.63 1019.27 1018.91 1018.51 1018.00 1017.33 1016.49 1015.49 1014.38 1013.22 1012.10 1011.09 1010.26 1009.65 1009.26 1009.06 1009.02 1009.09 1009.22 1009.36 1009.48 1009.58 1009.66 1009.72 1009.75 1009.78 1009.79 1009.79 1009.77 1009.74 1009.71 1009.70
1025.96 1025.63 1025.23 1024.76 1024.19 1023.56 1022.86 1022.16 1021.48 1020.87 1020.36 1019.92 1019.55 1019.19 1018.77 1018.24 1017.54 1016.67 1015.64 1014.49 1013.28 1012.11 1011.04 1010.14 1009.45 1008.98 1008.71 1008.60 1008.62 1008.72 1008.87 1009.03 1009.20 1009.36 1009.50 1009.63 1009.74 1009.83 1009.88 1009.91 1009.90 1009.89 1009.88
1026.65 1026.31 1025.89 1025.37 1024.76 1024.06 1023.32 1022.56 1021.85 1021.21 1020.67 1020.21 1019.82 1019.44 1019.00 1018.46 1017.76 1016.89 1015.85 1014.70 1013.49 1012.29 1011.19 1010.24 1009.48 1008.92 1008.56 1008.37 1008.32 1008.37 1008.50 1008.67 1008.88 1009.09 1009.31 1009.52 1009.71 1009.86 1009.97 1010.04 1010.08 1010.09 1010.10
1027.22 1026.86 1026.41 1025.87 1025.23 1024.51 1023.74 1022.97 1022.23 1021.56 1020.99 1020.51 1020.09 1019.69 1019.24 1018.69 1018.00 1017.15 1016.15 1015.02 1013.84 1012.65 1011.54 1010.55 1009.73 1009.08 1008.63 1008.34 1008.20 1008.18 1008.26 1008.42 1008.63 1008.88 1009.14 1009.40 1009.65 1009.85 1010.01 1010.13 1010.20 1010.24 1010.28
1027.64 1027.25 1026.79 1026.24 1025.60 1024.89 1024.13 1023.36 1022.62 1021.94 1021.35 1020.85 1020.40 1019.97 1019.51 1018.96 1018.29 1017.47 1016.52 1015.45 1014.31 1013.16 1012.05 1011.04 1010.17 1009.44 1008.89 1008.50 1008.26 1008.15 1008.17 1008.28 1008.47 1008.71 1008.99 1009.27 1009.54 1009.78 1009.98 1010.12 1010.22 1010.30 1010.37
1027.90 1027.49 1027.03 1026.50 1025.89 1025.22 1024.49 1023.76 1023.04 1022.37 1021.76 1021.23 1020.75 1020.29 1019.81 1019.26 1018.61 1017.83 1016.93 1015.93 1014.85 1013.75 1012.66 1011.64 1010.72 1009.93 1009.29 1008.80 1008.46 1008.26 1008.19 1008.24 1008.39 1008.60 1008.86 1009.14 1009.42 1009.66 1009.87 1010.03 1010.16 1010.27 1010.36
1028.06 1027.64 1027.19 1026.70 1026.15 1025.54 1024.88 1024.20 1023.51 1022.86 1022.24 1021.68 1021.16 1020.66 1020.15 1019.59 1018.94 1018.20 1017.35 1016.40 1015.38 1014.33 1013.27 1012.25 1011.31 1010.47 1009.75 1009.17 1008.75 1008.46 1008.32 1008.30 1008.39 1008.57 1008.79 1009.05 1009.30 1009.54 1009.74 1009.91 1010.05 1010.17 1010.29
1028.18 1027.77 1027.36 1026.93 1026.45 1025.93 1025.35 1024.72 1024.08 1023.44 1022.81 1022.21 1021.64 1021.09 1020.52 1019.93 1019.27 1018.54 1017.72 1016.83 1015.86 1014.85 1013.82 1012.81 1011.86 1010.99 1010.22 1009.59 1009.09 1008.74 1008.53 1008.46 1008.50 1008.63 1008.82 1009.03 1009.26 1009.47 1009.65 1009.81 1009.95 1010.07 1010.20
1028.35 1027.98 1027.63 1027.27 1026.88 1026.44 1025.93 1025.37 1024.76 1024.12 1023.47 1022.82 1022.19 1021.56 1020.93 1020.28 1019.60 1018.86 1018.05 1017.18 1016.25 1015.28 1014.29 1013.30 1012.35 1011.47 1010.68 1010.02 1009.49 1009.10 1008.85 1008.74 1008.74 1008.83 1008.98 1009.16 1009.34 1009.52 1009.67 1009.81 1009.93 1010.04 1010.16
1028.62 1028.32 1028.04 1027.77 1027.46 1027.10 1026.66 1026.14 1025.55 1024.90 1024.21 1023.50 1022.79 1022.08 1021.37 1020.66 1019.93 1019.16 1018.35 1017.49 1016.59 1015.65 1014.69 1013.73 1012.80 1011.93 1011.15 1010.49 1009.95 1009.55 1009.29 1009.16 1009.14 1009.20 1009.31 1009.45 1009.59 1009.73 1009.85 1009.95 1010.04 1010.12 1010.22
1029.03 1028.81 1028.63 1028.43 1028.20 1027.90 1027.50 1027.01 1026.41 1025.73 1024.99 1024.22 1023.43 1022.63 1021.84 1021.06 1020.28 1019.48 1018.65 1017.80 1016.92 1016.01 1015.08 1014.16 1013.26 1012.43 1011.68 1011.03 1010.51 1010.13 1009.87 1009.74 1009.70 1009.73 1009.81 1009.92 1010.02 1010.11 1010.18 1010.24 1010.29 1010.34 1010.40
1029.57 1029.45 1029.35 1029.23 1029.05 1028.78 1028.40 1027.91 1027.29 1026.57 1025.78 1024.93 1024.07 1023.20 1022.34 1021.50 1020.67 1019.84 1019.01 1018.16 1017.30 1016.41 1015.52 1014.64 1013.80 1013.00 1012.29 1011.68 1011.20 1010.83 1010.59 1010.45 1010.41 1010.42 1010.47 1010.53 1010.59 1010.63 1010.65 1010.66 1010.67 1010.67 1010.70
1030.20 1030.17 1030.14 1030.07 1029.92 1029.67 1029.28 1028.76 1028.12 1027.35 1026.51 1025.61 1024.69 1023.76 1022.86 1021.97 1021.11 1020.27 1019.44 1018.60 1017.76 1016.91 1016.06 1015.23 1014.42 1013.68 1013.01 1012.44 1011.98 1011.64 1011.41 1011.28 1011.22 1011.21 1011.22 1011.24 1011.25 1011.24 1011.21 1011.17 1011.13 1011.10 1011.08
1030.87 1030.91 1030.93 1030.88 1030.74 1030.47 1030.07 1029.52 1028.83 1028.03 1027.15 1026.21 1025.26 1024.30 1023.37 1022.48 1021.61 1020.77 1019.95 1019.13 1018.32 1017.50 1016.69 1015.90 1015.14 1014.44 1013.81 1013.27 1012.84 1012.51 1012.28 1012.14 1012.06 1012.02 1012.00 1011.98 1011.94 1011.88 1011.81 1011.72 1011.64 1011.57 1011.53
1031.51 1031.60 1031.64 1031.59 1031.43 1031.13 1030.69 1030.11 1029.39 1028.56 1027.66 1026.71 1025.75 1024.80 1023.87 1022.98 1022.13 1021.31 1020.51 1019.72 1018.94 1018.16 1017.38 1016.63 1015.90 1015.23 1014.63 1014.11 1013.69 1013.37 1013.13 1012.97 1012.87 1012.80 1012.74 1012.67 1012.60 1012.50 1012.39 1012.28 1012.17 1012.08 1012.02
1032.08 1032.19 1032.22 1032.15 1031.95 1031.61 1031.13 1030.52 1029.78 1028.94 1028.04 1027.11 1026.16 1025.23 1024.33 1023.47 1022.64 1021.85 1021.08 1020.32 1019.56 1018.81 1018.06 1017.33 1016.63 1015.98 1015.39 1014.88 1014.46 1014.12 1013.87 1013.69 1013.56 1013.46 1013.37 1013.28 1013.18 1013.07 1012.94 1012.82 1012.71 1012.62 1012.56
1032.57 1032.66 1032.66 1032.55 1032.30 1031.92 1031.41 1030.77 1030.02 1029.20 1028.32 1027.41 1026.50 1025.60 1024.74 1023.91 1023.12 1022.35 1021.60 1020.86 1020.13 1019.40 1018.67 1017.95 1017.26 1016.61 1016.03 1015.51 1015.08 1014.73 1014.46 1014.26 1014.10 1013.99 1013.88 1013.78 1013.68 1013.57 1013.46 1013.35 1013.26 1013.19 1013.15
1033.00 1033.04 1032.98 1032.81 1032.52 1032.10 1031.56 1030.91 1030.17 1029.36 1028.51 1027.64 1026.77 1025.92 1025.09 1024.29 1023.53 1022.78 1022.05 1021.33 1020.60 1019.88 1019.16 1018.45 1017.76 1017.11 1016.51 1015.99 1015.54 1015.17 1014.88 1014.66 1014.50 1014.37 1014.28 1014.19 1014.11 1014.03 1013.96 1013.89 1013.84 1013.81 1013.81
1033.36 1033.34 1033.22 1032.99 1032.64 1032.19 1031.63 1030.98 1030.26 1029.48 1028.67 1027.84 1027.01 1026.19 1025.39 1024.62 1023.87 1023.14 1022.41 1021.70 1020.98 1020.26 1019.53 1018.82 1018.13 1017.47 1016.87 1016.33 1015.86 1015.48 1015.17 1014.94 1014.78 1014.66 1014.58 1014.53 1014.49 1014.46 1014.45 1014.44 1014.45 1014.48 1014.53
1033.70 1033.60 1033.41 1033.11 1032.72 1032.24 1031.67 1031.03 1030.33 1029.58 1028.80 1028.01 1027.21 1026.42 1025.64 1024.89 1024.15 1023.42 1022.70 1021.99 1021.27 1020.55 1019.83 1019.12 1018.43 1017.76 1017.15 1016.60 1016.12 1015.72 1015.40 1015.17 1015.00 1014.90 1014.85 1014.84 1014.85 1014.89 1014.94 1015.01 1015.09 1015.18 1015.29
1034.01 1033.83 1033.57 1033.22 1032.78 1032.28 1031.71 1031.08 1030.39 1029.67 1028.92 1028.15 1027.38 1026.61 1025.85 1025.10 1024.37 1023.65 1022.94 1022.23 1021.52 1020.81 1020.10 1019.40 1018.71 1018.05 1017.43 1016.87 1016.38 1015.97 1015.64 1015.40 1015.24 1015.15 1015.12 1015.15 1015.21 1015.31 1015.43 1015.57 1015.72 1015.87 1016.03
1034.30 1034.04 1033.71 1033.30 1032.83 1032.31 1031.73 1031.10 1030.43 1029.73 1029.00 1028.25 1027.50 1026.74 1025.99 1025.26 1024.54 1023.83 1023.13 1022.44 1021.76 1021.07 1020.38 1019.70 1019.03 1018.38 1017.77 1017.21 1016.71 1016.29 1015.95 1015.70 1015.54 1015.45 1015.44 1015.49 1015.59 1015.74 1015.91 1016.10 1016.30 1016.51 1016.71
1034.56 1034.23 1033.82 1033.36 1032.86 1032.31 1031.72 1031.09 1030.42 1029.73 1029.01 1028.28 1027.53 1026.79 1026.06 1025.34 1024.63 1023.95 1023.28 1022.63 1021.98 1021.33 1020.69 1020.04 1019.41 1018.79 1018.19 1017.64 1017.15 1016.72 1016.37 1016.11 1015.93 1015.84 1015.82 1015.88 1016.00 1016.16 1016.36 1016.59 1016.83 1017.06 1017.29
1034.78 1034.37 1033.90 1033.39 1032.84 1032.25 1031.64 1031.00 1030.32 1029.63 1028.91 1028.18 1027.44 1026.71 1026.00 1025.30 1024.63 1023.98 1023.36 1022.75 1022.15 1021.56 1020.97 1020.38 1019.80 1019.22 1018.66 1018.14 1017.66 1017.23 1016.88 1016.61 1016.41 1016.31 1016.28 1016.32 1016.42 1016.58 1016.79 1017.01 1017.26 1017.51 1017.75
Thickness
5566 5564 5561 5559 5557 5556 5554 5553 5552 5551 5551 5551 5551 5551 5552 5553 5556 5558 5561 5564 5569 5575 5581 5587 5593 5597 5600 5603 5605 5607 5609 5612 5614 5615 5617 5622 5627 5631 5635 5638 5640 5643 5645
5552 5550 5547 5543 5540 5537 5535 5534 5532 5531 5530 5529 5528 5528 5529 5530 5533 5537 5542 5546 5550 5555 5562 5569 5575 5580 5584 5587 5589 5592 5594 5596 5599 5599 5599 5602 5608 5615 5620 5623 5626 5629 5631
5533 5530 5527 5522 5518 5514 5511 5510 5508 5507 5506 5505 5505 5505 5506 5508 5511 5515 5520 5525 5530 5536 5542 5550 5556 5562 5567 5570 5573 5576 5578 5579 5581 5584 5585 5585 5590 5595 5602 5606 5611 5614 5617
5512 5507 5503 5497 5491 5487 5484 5483 5482 5482 5481 5480 5478 5477 5478 5479 5481 5485 5492 5498 5505 5513 5521 5529 5536 5543 5548 5552 5555 5558 5561 5563 5563 5565 5568 5570 5574 5577 5583 5587 5591 5596 5600
5490 5485 5479 5472 5466 5461 5459 5457 5457 5456 5454 5453 5450 5449 5448 5450 5453 5458 5464 5472 5480 5487 5495 5504 5513 5520 5525 5531 5534 5536 5540 5543 5544 5546 5548 5550 5553 5558 5564 5568 5572 5576 5581
5468 5461 5454 5447 5441 5437 5434 5432 5430 5429 5427 5425 5423 5422 5421 5423 5426 5430 5435 5442 5450 5458 5466 5474 5485 5494 5500 5505 5510 5513 5517 5521 5524 5526 5528 5531 5535 5538 5542 5546 5550 5555 5560
5443 5436 5429 5422 5418 5414 5411 5409 5407 5406 5404 5402 5401 5400 5399 5400 5402 5405 5409 5415 5422 5429 5435 5442 5452 5464 5472 5479 5485 5489 5493 5498 5502 5504 5508 5512 5516 5519 5522 5526 5528 5533 5537
5421 5413 5405 5399 5394 5391 5389 5388 5387 5386 5385 5384 5383 5383 5382 5383 5384 5384 5386 5390 5395 5400 5406 5413 5423 5434 5446 5455 5461 5465 5471 5476 5480 5484 5487 5491 5496 5500 5504 5507 5508 5511 5515
5402 5392 5385 5378 5372 5369 5367 5367 5367 5367 5367 5367 5368 5369 5367 5367 5367 5368 5368 5369 5371 5375 5379 5386 5396 5408 5420 5432 5440 5445 5451 5456 5460 5464 5468 5472 5477 5482 5487 5491 5494 5494 5495
5383 5374 5366 5360 5354 5350 5348 5348 5349 5350 5351 5352 5353 5353 5353 5353 5353 5354 5354 5355 5356 5358 5362 5368 5376 5387 5399 5410 5420 5428 5434 5440 5444 5448 5452 5456 5460 5464 5469 5474 5478 5482 5483
5366 5358 5351 5343 5337 5334 5333 5334 5335 5336 5337 5338 5338 5339 5340 5340 5340 5341 5342 5343 5345 5347 5351 5356 5363 5372 5382 5393 5402 5411 5418 5424 5428 5433 5437 5441 5445 5448 5453 5459 5464 5467 5470
5350 5343 5336 5329 5324 5321 5320 5320 5322 5322 5323 5324 5326 5326 5326 5327 5329 5330 5332 5334 5335 5337 5340 5345 5352 5360 5369 5377 5385 5394 5402 5408 5413 5417 5422 5425 5430 5433 5436 5442 5448 5452 5457
5341 5333 5325 5318 5313 5309 5307 5307 5308 5309 5310 5312 5313 5314 5314 5315 5317 5319 5322 5323 5324 5326 5328 5332 5338 5346 5354 5362 5370 5379 5385 5391 5396 5402 5406 5409 5413 5415 5419 5424 5430 5435 5442
5331 5323 5315 5307 5302 5297 5294 5294 5296 5296 5298 5300 5301 5302 5302 5303 5305 5307 5310 5311 5313 5314 5315 5318 5323 5330 5339 5346 5353 5361 5367 5373 5379 5384 5388 5392 5396 5400 5404 5409 5413 5420 5426
5321 5312 5304 5297 5292 5287 5284 5284 5284 5285 5287 5288 5289 5290 5291 5291 5292 5294 5296 5298 5300 5302 5303 5305 5309 5314 5323 5332 5337 5343 5349 5354 5359 5363 5368 5374 5380 5386 5390 5395 5399 5405 5410
5309 5302 5294 5287 5281 5277 5275 5274 5275 5275 5276 5277 5278 5279 5280 5280 5280 5281 5283 5285 5287 5289 5291 5293 5296 5300 5307 5315 5322 5326 5329 5334 5338 5343 5349 5355 5359 5365 5372 5380 5386 5391 5394
5299 5291 5283 5276 5271 5267 5265 5264 5264 5264 5265 5265 5265 5267 5267 5267 5268 5268 5269 5271 5273 5276 5279 5282 5285 5288 5292 5301 5307 5311 5313 5317 5321 5326 5331 5336 5342 5347 5352 5359 5366 5372 5378
5290 5281 5273 5268 5263 5259 5256 5254 5253 5252 5252 5251 5252 5253 5253 5254 5254 5254 5255 5256 5259 5263 5267 5271 5274 5277 5282 5288 5293 5298 5300 5303 5308 5312 5316 5320 5326 5332 5336 5342 5347 5351 5356
5281 5272 5265 5259 5255 5251 5248 5245 5242 5240 5239 5238 5238 5238 5238 5239 5239 5239 5240 5242 5245 5248 5253 5258 5262 5266 5270 5276 5281 5285 5287 5290 5294 5298 5301 5305 5310 5318 5322 5326 5330 5333 5337
5273 5265 5258 5251 5246 5242 5237 5233 5230 5227 5225 5224 5223 5222 5222 5222 5223 5223 5225 5227 5229 5232 5236 5241 5246 5250 5255 5261 5267 5270 5273 5275 5279 5283 5287 5293 5296 5302 5305 5308 5313 5316 5319
5265 5257 5249 5242 5236 5231 5226 5221 5216 5213 5211 5208 5207 5205 5205 5205 5207 5206 5208 5211 5214 5216 5219 5223 5228 5232 5237 5243 5250 5255 5258 5261 5264 5267 5271 5275 5281 5286 5291 5294 5298 5302 5303
5257 5248 5240 5232 5225 5219 5214 5208 5203 5200 5196 5193 5191 5188 5187 5186 5188 5188 5190 5193 5195 5198 5202 5206 5211 5215 5219 5224 5231 5238 5243 5246 5249 5252 5255 5260 5266 5270 5275 5278 5284 5286 5287
5247 5239 5229 5221 5214 5207 5202 5195 5191 5187 5183 5179 5176 5174 5171 5168 5168 5169 5171 5173 5176 5179 5185 5190 5193 5197 5201 5205 5212 5219 5225 5230 5233 5236 5242 5247 5251 5254 5257 5263 5266 5267 5269
5238 5229 5220 5211 5204 5198 5192 5186 5181 5176 5171 5167 5164 5162 5158 5154 5151 5151 5152 5154 5155 5159 5165 5169 5173 5177 5182 5187 5193 5199 5205 5211 5215 5219 5225 5230 5234 5237 5241 5243 5245 5249 5252
5229 5219 5209 5203 5197 5191 5185 5181 5175 5170 5164 5159 5155 5152 5148 5142 5138 5136 5135 5136 5137 5140 5143 5146 5151 5157 5163 5169 5178 5183 5189 5193 5198 5202 5206 5211 5215 5218 5221 5223 5227 5230 5233
5219 5211 5204 5200 5193 5188 5182 5177 5172 5166 5160 5156 5151 5147 5143 5137 5132 5128 5124 5122 5123 5125 5126 5128 5132 5138 5144 5150 5157 5163 5169 5175 5180 5183 5186 5189 5193 5197 5201 5204 5208 5212 5216